| time (UTC) | temp F | wind direction | speed MPH | gust MPH | rain 1hr in | rain 24hr in | rain mn in | humidity % | barometer mb |
| 20260906090613 | 78 | 293 | 4.0 | 7.0 | 0.00 | 0.00 | 0.00 | 37 | 1029.6 |
| 20260906085617 | 76 | 313 | 4.0 | 11.0 | 0.00 | 0.00 | 0.00 | 39 | 1029.6 |
| 20260906084621 | 75 | 327 | 3.0 | 7.0 | 0.00 | 0.00 | 0.00 | 41 | 1029.6 |
| 20260906083626 | 74 | 294 | 2.0 | 9.0 | 0.00 | 0.00 | 0.00 | 42 | 1029.7 |
| 20260906081634 | 65 | 289 | 3.0 | 7.0 | 0.00 | 0.00 | 0.00 | 52 | 1029.3 |
| 20260906080638 | 65 | 293 | 3.0 | 5.0 | 0.00 | 0.00 | 0.00 | 52 | 1029.4 |
| 20260906075642 | 68 | 286 | 2.0 | 7.0 | 0.00 | 0.00 | 0.00 | 50 | 1029.2 |
| 20260906074647 | 66 | 306 | 2.0 | 7.0 | 0.00 | 0.00 | 0.00 | 52 | 1029.0 |
| 20260906073651 | 66 | 303 | 3.0 | 6.0 | 0.00 | 0.00 | 0.00 | 53 | 1028.9 |
| 20260906072655 | 66 | 301 | 2.0 | 6.0 | 0.00 | 0.00 | 0.00 | 53 | 1028.8 |
| 20260906071659 | 67 | 274 | 2.0 | 5.0 | 0.00 | 0.00 | 0.00 | 51 | 1028.7 |
| 20260906070704 | 70 | 300 | 3.0 | 7.0 | 0.00 | 0.00 | 0.00 | 48 | 1028.7 |
| 20260906065708 | 70 | 287 | 3.0 | 6.0 | 0.00 | 0.00 | 0.00 | 49 | 1028.6 |
| 20260906064712 | 69 | 294 | 3.0 | 6.0 | 0.00 | 0.00 | 0.00 | 51 | 1028.4 |
| 20260906063716 | 68 | 278 | 3.0 | 8.0 | 0.00 | 0.00 | 0.00 | 51 | 1028.4 |
| 20260906062721 | 68 | 307 | 2.0 | 7.0 | 0.00 | 0.00 | 0.00 | 55 | 1028.4 |
| 20260906060729 | 66 | 288 | 2.0 | 5.0 | 0.00 | 0.00 | 0.00 | 58 | 1028.2 |
| 20260906055734 | 65 | 70 | 1.0 | 4.0 | 0.00 | 0.00 | 0.00 | 60 | 1027.9 |
| 20260906053742 | 63 | 308 | 1.0 | 3.0 | 0.00 | 0.00 | 0.00 | 61 | 1027.9 |
| 20260906052746 | 61 | 152 | 0.0 | 1.0 | 0.00 | 0.00 | 0.00 | 64 | 1027.9 |
| 20260906051750 | 58 | 171 | 0.0 | 1.0 | 0.00 | 0.00 | 0.00 | 67 | 1027.7 |
| 20260906050755 | 56 | 115 | 1.0 | 3.0 | 0.00 | 0.00 | 0.00 | 70 | 1027.6 |
| 20260906045759 | 56 | 289 | 1.0 | 3.0 | 0.00 | 0.00 | 0.00 | 70 | 1027.6 |
| 20260906044804 | 54 | 299 | 1.0 | 3.0 | 0.00 | 0.00 | 0.00 | 72 | 1027.5 |
| 20260906043808 | 53 | 284 | 1.0 | 2.0 | 0.00 | 0.00 | 0.00 | 73 | 1027.4 |
| 20260906042812 | 53 | 281 | 3.0 | 5.0 | 0.00 | 0.00 | 0.00 | 73 | 1027.4 |
| 20260906041816 | 52 | 279 | 1.0 | 2.0 | 0.00 | 0.00 | 0.00 | 72 | 1027.4 |
| 20260906040820 | 52 | 256 | 0.0 | 1.0 | 0.00 | 0.00 | 0.00 | 72 | 1027.2 |
| 20260906035825 | 52 | 257 | 0.0 | 2.0 | 0.00 | 0.00 | 0.00 | 72 | 1027.2 |
| 20260906034829 | 52 | 260 | 0.0 | 2.0 | 0.00 | 0.00 | 0.00 | 71 | 1027.1 |
| 20260906033834 | 52 | 257 | 1.0 | 4.0 | 0.00 | 0.00 | 0.00 | 71 | 1027.0 |
| 20260906032838 | 53 | 244 | 1.0 | 3.0 | 0.00 | 0.00 | 0.00 | 71 | 1026.9 |
| 20260906031842 | 53 | 250 | 2.0 | 6.0 | 0.00 | 0.00 | 0.00 | 71 | 1026.9 |
| 20260906030846 | 53 | 243 | 1.0 | 3.0 | 0.00 | 0.00 | 0.00 | 70 | 1026.8 |
| 20260906025850 | 53 | 256 | 1.0 | 3.0 | 0.00 | 0.00 | 0.00 | 68 | 1026.8 |
| 20260906024855 | 52 | 242 | 1.0 | 2.0 | 0.00 | 0.00 | 0.00 | 68 | 1026.6 |
| 20260906023859 | 53 | 236 | 0.0 | 1.0 | 0.00 | 0.00 | 0.00 | 66 | 1026.5 |
| 20260906022903 | 54 | 197 | 0.0 | 2.0 | 0.00 | 0.00 | 0.00 | 66 | 1026.4 |
| 20260906021908 | 54 | 192 | 0.0 | 2.0 | 0.00 | 0.00 | 0.00 | 67 | 1026.3 |
| 20260906020912 | 53 | 299 | 1.0 | 3.0 | 0.00 | 0.00 | 0.00 | 65 | 1026.2 |
| 20260906015916 | 53 | 182 | 0.0 | 2.0 | 0.00 | 0.00 | 0.00 | 66 | 1026.2 |
| 20260906014920 | 54 | 115 | 1.0 | 2.0 | 0.00 | 0.00 | 0.00 | 66 | 1026.2 |
| 20260906013925 | 54 | 125 | 1.0 | 3.0 | 0.00 | 0.00 | 0.00 | 66 | 1026.1 |
| 20260906011934 | 54 | 175 | 0.0 | 3.0 | 0.00 | 0.00 | 0.00 | 65 | 1026.0 |
| 20260906010938 | 55 | 145 | 0.0 | 2.0 | 0.00 | 0.00 | 0.00 | 66 | 1026.0 |
| 20260906005942 | 55 | 14 | 1.0 | 2.0 | 0.00 | 0.00 | 0.00 | 63 | 1026.0 |
| 20260906004946 | 56 | 190 | 1.0 | 3.0 | 0.00 | 0.00 | 0.00 | 63 | 1026.0 |
| 20260906003951 | 56 | 181 | 1.0 | 4.0 | 0.00 | 0.00 | 0.00 | 65 | 1026.1 |
| 20260906002955 | 56 | 206 | 1.0 | 3.0 | 0.00 | 0.00 | 0.00 | 65 | 1026.0 |
| 20260906001959 | 56 | 154 | 1.0 | 2.0 | 0.00 | 0.00 | 0.00 | 64 | 1025.9 |
| 20260906001004 | 57 | 214 | 1.0 | 2.0 | 0.00 | 0.00 | 0.00 | 62 | 1025.7 |
| 20260906000008 | 57 | 245 | 1.0 | 3.0 | 0.00 | 0.00 | 0.00 | 61 | 1025.7 |
| 20260905235012 | 57 | 211 | 1.0 | 2.0 | 0.00 | 0.00 | 0.00 | 63 | 1025.7 |
| 20260905234016 | 58 | 184 | 1.0 | 3.0 | 0.00 | 0.00 | 0.00 | 62 | 1025.7 |
| 20260905233020 | 58 | 160 | 1.0 | 3.0 | 0.00 | 0.00 | 0.00 | 60 | 1025.6 |
| 20260905232024 | 58 | 152 | 1.0 | 4.0 | 0.00 | 0.00 | 0.00 | 61 | 1025.6 |
| 20260905231029 | 58 | 37 | 2.0 | 4.0 | 0.00 | 0.00 | 0.00 | 59 | 1025.5 |
| 20260905230033 | 59 | 345 | 2.0 | 5.0 | 0.00 | 0.00 | 0.00 | 58 | 1025.3 |
| 20260905225037 | 59 | 214 | 1.0 | 3.0 | 0.00 | 0.00 | 0.00 | 58 | 1025.2 |
| 20260905224042 | 60 | 295 | 2.0 | 5.0 | 0.00 | 0.00 | 0.00 | 57 | 1025.1 |
| 20260905223046 | 60 | 332 | 4.0 | 10.0 | 0.00 | 0.00 | 0.00 | 57 | 1024.9 |
| 20260905222050 | 61 | 325 | 4.0 | 7.0 | 0.00 | 0.00 | 0.00 | 57 | 1024.8 |
| 20260905221054 | 60 | 325 | 3.0 | 6.0 | 0.00 | 0.00 | 0.00 | 57 | 1024.7 |
| 20260905220059 | 60 | 319 | 2.0 | 7.0 | 0.00 | 0.00 | 0.00 | 58 | 1024.7 |
| 20260905215103 | 60 | 294 | 3.0 | 7.0 | 0.00 | 0.00 | 0.00 | 58 | 1024.7 |
| 20260905214107 | 60 | 310 | 4.0 | 8.0 | 0.00 | 0.00 | 0.00 | 58 | 1024.6 |
| 20260905213112 | 60 | 292 | 2.0 | 5.0 | 0.00 | 0.00 | 0.00 | 57 | 1024.5 |
| 20260905210124 | 61 | 334 | 2.0 | 6.0 | 0.00 | 0.00 | 0.00 | 55 | 1024.3 |
| 20260905205128 | 61 | 331 | 3.0 | 6.0 | 0.00 | 0.00 | 0.00 | 54 | 1024.2 |
| 20260905204133 | 62 | 314 | 4.0 | 9.0 | 0.00 | 0.00 | 0.00 | 54 | 1024.2 |
| 20260905203137 | 62 | 299 | 3.0 | 5.0 | 0.00 | 0.00 | 0.00 | 53 | 1024.0 |
| 20260905202141 | 62 | 306 | 2.0 | 6.0 | 0.00 | 0.00 | 0.00 | 53 | 1024.0 |
| 20260905201145 | 62 | 300 | 2.0 | 5.0 | 0.00 | 0.00 | 0.00 | 52 | 1023.9 |
| 20260905200150 | 62 | 293 | 1.0 | 4.0 | 0.00 | 0.00 | 0.00 | 52 | 1023.8 |
| 20260905195154 | 62 | 314 | 2.0 | 7.0 | 0.00 | 0.00 | 0.00 | 52 | 1023.6 |
| 20260905193202 | 62 | 297 | 2.0 | 5.0 | 0.00 | 0.00 | 0.00 | 52 | 1023.4 |
| 20260905192207 | 62 | 307 | 3.0 | 5.0 | 0.00 | 0.00 | 0.00 | 52 | 1023.4 |
| 20260905191211 | 62 | 293 | 2.0 | 8.0 | 0.00 | 0.00 | 0.00 | 51 | 1023.4 |
| 20260905190215 | 62 | 284 | 2.0 | 4.0 | 0.00 | 0.00 | 0.00 | 51 | 1023.1 |
| 20260905185219 | 63 | 311 | 2.0 | 8.0 | 0.00 | 0.00 | 0.00 | 50 | 1023.0 |
| 20260905184223 | 64 | 305 | 3.0 | 7.0 | 0.00 | 0.00 | 0.00 | 49 | 1022.8 |
| 20260905183228 | 64 | 311 | 4.0 | 9.0 | 0.00 | 0.00 | 0.00 | 49 | 1022.8 |
| 20260905181236 | 63 | 302 | 3.0 | 9.0 | 0.00 | 0.00 | 0.00 | 50 | 1022.5 |
| 20260905175245 | 65 | 282 | 4.0 | 7.0 | 0.00 | 0.00 | 0.00 | 48 | 1022.1 |
| 20260905174249 | 65 | 289 | 3.0 | 5.0 | 0.00 | 0.00 | 0.00 | 48 | 1021.8 |
| 20260905173253 | 65 | 296 | 3.0 | 6.0 | 0.00 | 0.00 | 0.00 | 46 | 1021.7 |
| 20260905172257 | 66 | 300 | 3.0 | 9.0 | 0.00 | 0.00 | 0.00 | 45 | 1021.6 |
| 20260905171302 | 67 | 284 | 3.0 | 6.0 | 0.00 | 0.00 | 0.00 | 44 | 1021.6 |
| 20260905170306 | 68 | 298 | 4.0 | 8.0 | 0.00 | 0.00 | 0.00 | 43 | 1021.4 |
| 20260905165310 | 70 | 296 | 4.0 | 10.0 | 0.00 | 0.00 | 0.00 | 42 | 1021.4 |
| 20260905164314 | 71 | 310 | 4.0 | 8.0 | 0.00 | 0.00 | 0.00 | 41 | 1021.1 |
| 20260905163319 | 72 | 321 | 4.0 | 8.0 | 0.00 | 0.00 | 0.00 | 40 | 1021.1 |
| 20260905162323 | 73 | 334 | 4.0 | 9.0 | 0.00 | 0.00 | 0.00 | 39 | 1021.0 |
| 20260905161327 | 73 | 315 | 5.0 | 13.0 | 0.00 | 0.00 | 0.00 | 38 | 1020.9 |
| 20260905160331 | 75 | 321 | 5.0 | 12.0 | 0.00 | 0.00 | 0.00 | 37 | 1020.8 |
| 20260905155336 | 76 | 313 | 4.0 | 10.0 | 0.00 | 0.00 | 0.00 | 37 | 1020.6 |
| 20260905154340 | 74 | 315 | 5.0 | 12.0 | 0.00 | 0.00 | 0.00 | 38 | 1020.6 |
| 20260905153344 | 74 | 321 | 5.0 | 13.0 | 0.00 | 0.00 | 0.00 | 37 | 1020.6 |
| 20260905152348 | 75 | 327 | 7.0 | 15.0 | 0.00 | 0.00 | 0.00 | 36 | 1020.5 |
| 20260905151352 | 75 | 308 | 5.0 | 11.0 | 0.00 | 0.00 | 0.00 | 36 | 1020.5 |
| 20260905150357 | 77 | 297 | 7.0 | 12.0 | 0.00 | 0.00 | 0.00 | 34 | 1020.5 |
| 20260905145401 | 77 | 307 | 5.0 | 13.0 | 0.00 | 0.00 | 0.00 | 36 | 1020.5 |
| 20260905144405 | 75 | 315 | 5.0 | 10.0 | 0.00 | 0.00 | 0.00 | 37 | 1020.5 |
| 20260905143410 | 75 | 325 | 4.0 | 8.0 | 0.00 | 0.00 | 0.00 | 37 | 1020.4 |
| 20260905142414 | 77 | 311 | 5.0 | 11.0 | 0.00 | 0.00 | 0.00 | 36 | 1020.4 |
| 20260905141418 | 76 | 296 | 3.0 | 7.0 | 0.00 | 0.00 | 0.00 | 37 | 1020.4 |
| 20260905140422 | 75 | 301 | 6.0 | 12.0 | 0.00 | 0.00 | 0.00 | 38 | 1020.5 |
| 20260905135426 | 76 | 309 | 5.0 | 9.0 | 0.00 | 0.00 | 0.00 | 36 | 1020.5 |
| 20260905134431 | 77 | 314 | 4.0 | 7.0 | 0.00 | 0.00 | 0.00 | 36 | 1020.6 |
| 20260905133435 | 80 | 292 | 4.0 | 7.0 | 0.00 | 0.00 | 0.00 | 35 | 1020.4 |
| 20260905132439 | 81 | 307 | 6.0 | 12.0 | 0.00 | 0.00 | 0.00 | 34 | 1020.4 |
| 20260905131443 | 80 | 314 | 6.0 | 9.0 | 0.00 | 0.00 | 0.00 | 35 | 1020.5 |
| 20260905130447 | 79 | 312 | 5.0 | 11.0 | 0.00 | 0.00 | 0.00 | 36 | 1020.5 |
| 20260905125451 | 79 | 325 | 4.0 | 9.0 | 0.00 | 0.00 | 0.00 | 36 | 1020.5 |
| 20260905124456 | 78 | 326 | 5.0 | 9.0 | 0.00 | 0.00 | 0.00 | 37 | 1020.3 |
| 20260905123500 | 76 | 349 | 4.0 | 9.0 | 0.00 | 0.00 | 0.00 | 39 | 1020.6 |
| 20260905122504 | 77 | 313 | 4.0 | 6.0 | 0.00 | 0.00 | 0.00 | 37 | 1020.6 |
| 20260905121508 | 78 | 296 | 4.0 | 10.0 | 0.00 | 0.00 | 0.00 | 36 | 1020.7 |
| 20260905120513 | 82 | 312 | 5.0 | 14.0 | 0.00 | 0.00 | 0.00 | 35 | 1020.6 |
| 20260905115517 | 79 | 314 | 6.0 | 11.0 | 0.00 | 0.00 | 0.00 | 36 | 1020.8 |
| 20260905114521 | 80 | 301 | 8.0 | 14.0 | 0.00 | 0.00 | 0.00 | 36 | 1020.7 |
| 20260905113525 | 80 | 290 | 6.0 | 14.0 | 0.00 | 0.00 | 0.00 | 36 | 1020.8 |
| 20260905112530 | 76 | 295 | 4.0 | 8.0 | 0.00 | 0.00 | 0.00 | 40 | 1020.9 |
| 20260905111534 | 77 | 302 | 5.0 | 9.0 | 0.00 | 0.00 | 0.00 | 39 | 1021.0 |
| 20260905110538 | 76 | 285 | 7.0 | 14.0 | 0.00 | 0.00 | 0.00 | 38 | 1021.0 |
| 20260905105542 | 78 | 282 | 5.0 | 10.0 | 0.00 | 0.00 | 0.00 | 38 | 1021.0 |
| 20260905104546 | 76 | 290 | 6.0 | 12.0 | 0.00 | 0.00 | 0.00 | 39 | 1020.9 |
| 20260905103551 | 74 | 282 | 7.0 | 14.0 | 0.00 | 0.00 | 0.00 | 41 | 1020.6 |
| 20260905102555 | 77 | 285 | 6.0 | 13.0 | 0.00 | 0.00 | 0.00 | 39 | 1020.9 |
| 20260905101559 | 77 | 274 | 5.0 | 9.0 | 0.00 | 0.00 | 0.00 | 40 | 1021.0 |
| 20260905100603 | 77 | 282 | 7.0 | 13.0 | 0.00 | 0.00 | 0.00 | 40 | 1021.1 |
| 20260905095607 | 76 | 270 | 6.0 | 12.0 | 0.00 | 0.00 | 0.00 | 42 | 1020.9 |
| 20260905094612 | 78 | 276 | 7.0 | 13.0 | 0.00 | 0.00 | 0.00 | 40 | 1020.8 |
| 20260905093616 | 77 | 281 | 8.0 | 14.0 | 0.00 | 0.00 | 0.00 | 39 | 1020.9 |
| 20260905092620 | 76 | 286 | 7.0 | 15.0 | 0.00 | 0.00 | 0.00 | 40 | 1020.9 |
| 20260905091624 | 75 | 281 | 7.0 | 13.0 | 0.00 | 0.00 | 0.00 | 41 | 1020.8 |